EN

Hourly Weather Abazivka

Today, 12 June, Saturday

Time Temperature Precipitation Wind Pressure Humidity
00:00 +14°C° 0 mm 3 mps 744 mmHg 94%
01:00 +14°C° 0 mm 3 mps 744 mmHg 95%
02:00 +13°C° 0 mm 3 mps 744 mmHg 95%
03:00 +15°C° 0 mm 2 mps 744 mmHg 95%
04:00 +15°C° 0 mm 2 mps 744 mmHg 94%
05:00 +16°C° 0 mm 2 mps 744 mmHg 94%
06:00 +17°C° 0 mm 2 mps 745 mmHg 90%
07:00 +18°C° 0 mm 3 mps 745 mmHg 86%
08:00 +19°C° 0 mm 3 mps 745 mmHg 83%
09:00 +20°C° 0.4 mm 3 mps 745 mmHg 79%
10:00 +21°C° 0.4 mm 3 mps 745 mmHg 76%
11:00 +21°C° 0.4 mm 3 mps 745 mmHg 72%
12:00 +22°C° 0.4 mm 3 mps 745 mmHg 71%
13:00 +22°C° 0.4 mm 3 mps 745 mmHg 70%
14:00 +22°C° 0.4 mm 4 mps 745 mmHg 68%
15:00 +22°C° 0.2 mm 3 mps 745 mmHg 71%
16:00 +22°C° 0.2 mm 3 mps 745 mmHg 74%
17:00 +21°C° 0.2 mm 3 mps 744 mmHg 77%
18:00 +20°C° 0 mm 2 mps 744 mmHg 79%
19:00 +19°C° 0 mm 2 mps 744 mmHg 82%
20:00 +19°C° 0 mm 1 mps 745 mmHg 85%
21:00 +18°C° 0 mm 1 mps 745 mmHg 86%
22:00 +18°C° 0 mm 1 mps 745 mmHg 87%
23:00 +16°C° 0 mm 2 mps 745 mmHg 89%

Tomorrow, 13 June, Sunday

Time Temperature Precipitation Wind Pressure Humidity
00:00 +16°C° 0 mm 2 mps 745 mmHg 89%
01:00 +16°C° 0 mm 2 mps 744 mmHg 89%
02:00 +16°C° 0 mm 2 mps 744 mmHg 89%
03:00 +16°C° 0 mm 2 mps 744 mmHg 89%
04:00 +16°C° 0 mm 2 mps 744 mmHg 89%
05:00 +16°C° 0 mm 2 mps 744 mmHg 89%
06:00 +18°C° 0 mm 3 mps 744 mmHg 84%
07:00 +20°C° 0 mm 3 mps 744 mmHg 78%
08:00 +21°C° 0 mm 4 mps 744 mmHg 73%
09:00 +22°C° 0.3 mm 4 mps 744 mmHg 68%
10:00 +23°C° 0.3 mm 5 mps 743 mmHg 64%
11:00 +25°C° 0.3 mm 5 mps 743 mmHg 59%
12:00 +25°C° 0.2 mm 5 mps 743 mmHg 61%
13:00 +25°C° 0.2 mm 5 mps 743 mmHg 62%
14:00 +25°C° 0.2 mm 5 mps 743 mmHg 63%
15:00 +22°C° 0.8 mm 4 mps 743 mmHg 70%
16:00 +21°C° 0.8 mm 4 mps 743 mmHg 77%
17:00 +19°C° 0.8 mm 3 mps 743 mmHg 85%
18:00 +18°C° 0.5 mm 3 mps 743 mmHg 87%
19:00 +18°C° 0.5 mm 3 mps 743 mmHg 89%
20:00 +17°C° 0.5 mm 3 mps 744 mmHg 91%
21:00 +17°C° 0.7 mm 2 mps 744 mmHg 92%
22:00 +16°C° 0.7 mm 2 mps 744 mmHg 94%
23:00 +16°C° 0.7 mm 1 mps 744 mmHg 95%

Day after tomorrow, 14 June, Monday

Time Temperature Precipitation Wind Pressure Humidity
00:00 +15°C° 0.2 mm 1 mps 744 mmHg 96%
01:00 +15°C° 0.2 mm 1 mps 744 mmHg 96%
02:00 +15°C° 0.2 mm 1 mps 744 mmHg 96%
03:00 +15°C° 0 mm 1 mps 744 mmHg 96%
04:00 +15°C° 0 mm 1 mps 744 mmHg 96%
05:00 +16°C° 0 mm 1 mps 744 mmHg 95%
06:00 +18°C° 0 mm 1 mps 745 mmHg 90%
07:00 +19°C° 0 mm 2 mps 745 mmHg 86%
08:00 +20°C° 0 mm 2 mps 745 mmHg 81%
09:00 +21°C° 0.3 mm 2 mps 745 mmHg 75%
10:00 +24°C° 0.3 mm 3 mps 746 mmHg 70%
11:00 +25°C° 0.3 mm 3 mps 746 mmHg 64%
12:00 +25°C° 0.7 mm 3 mps 746 mmHg 65%
13:00 +25°C° 0.7 mm 3 mps 746 mmHg 65%
14:00 +25°C° 0.7 mm 3 mps 746 mmHg 66%
15:00 +25°C° 0.7 mm 3 mps 746 mmHg 68%
16:00 +25°C° 0.7 mm 3 mps 746 mmHg 70%
17:00 +25°C° 0.7 mm 2 mps 746 mmHg 72%
18:00 +23°C° 0.2 mm 2 mps 746 mmHg 76%
19:00 +21°C° 0.2 mm 2 mps 746 mmHg 80%
20:00 +19°C° 0.2 mm 3 mps 746 mmHg 84%
21:00 +18°C° 0 mm 3 mps 746 mmHg 86%
22:00 +18°C° 0 mm 2 mps 746 mmHg 87%
23:00 +17°C° 0 mm 2 mps 747 mmHg 89%

15 June, Tuesday

Time Temperature Precipitation Wind Pressure Humidity
00:00 +17°C° 0 mm 2 mps 747 mmHg 89%
01:00 +17°C° 0 mm 2 mps 747 mmHg 89%
02:00 +16°C° 0 mm 2 mps 747 mmHg 89%
03:00 +17°C° 0 mm 2 mps 747 mmHg 90%
04:00 +17°C° 0 mm 2 mps 747 mmHg 90%
05:00 +17°C° 0 mm 2 mps 747 mmHg 90%
06:00 +19°C° 0 mm 3 mps 747 mmHg 85%
07:00 +21°C° 0 mm 3 mps 747 mmHg 80%
08:00 +22°C° 0 mm 3 mps 747 mmHg 75%
09:00 +23°C° 0.1 mm 4 mps 747 mmHg 71%
10:00 +25°C° 0.1 mm 4 mps 747 mmHg 67%
11:00 +26°C° 0.1 mm 4 mps 747 mmHg 62%
12:00 +26°C° 0.4 mm 4 mps 746 mmHg 62%
13:00 +26°C° 0.4 mm 4 mps 746 mmHg 62%
14:00 +26°C° 0.4 mm 4 mps 746 mmHg 62%
15:00 +26°C° 0.3 mm 4 mps 746 mmHg 66%
16:00 +26°C° 0.3 mm 4 mps 746 mmHg 70%
17:00 +25°C° 0.3 mm 4 mps 745 mmHg 74%
18:00 +23°C° 0.3 mm 4 mps 745 mmHg 80%
19:00 +21°C° 0.3 mm 4 mps 745 mmHg 85%
20:00 +19°C° 0.3 mm 4 mps 745 mmHg 91%
21:00 +19°C° 0.1 mm 4 mps 745 mmHg 92%
22:00 +19°C° 0.1 mm 4 mps 745 mmHg 93%
23:00 +17°C° 0.1 mm 5 mps 745 mmHg 94%

16 June, Wednesday

Time Temperature Precipitation Wind Pressure Humidity
00:00 +17°C° 0 mm 5 mps 745 mmHg 94%
01:00 +16°C° 0 mm 5 mps 745 mmHg 94%
02:00 +16°C° 0 mm 5 mps 745 mmHg 95%
03:00 +16°C° 0 mm 5 mps 745 mmHg 94%
04:00 +16°C° 0 mm 5 mps 745 mmHg 94%
05:00 +16°C° 0 mm 5 mps 745 mmHg 93%
06:00 +17°C° 0.3 mm 5 mps 745 mmHg 90%
07:00 +20°C° 0.3 mm 5 mps 745 mmHg 87%
08:00 +21°C° 0.3 mm 5 mps 745 mmHg 83%
09:00 +22°C° 0.4 mm 6 mps 745 mmHg 80%
10:00 +23°C° 0.4 mm 6 mps 745 mmHg 76%
11:00 +24°C° 0.4 mm 6 mps 745 mmHg 73%
12:00 +24°C° 0.5 mm 6 mps 745 mmHg 73%
13:00 +24°C° 0.5 mm 7 mps 745 mmHg 72%
14:00 +24°C° 0.5 mm 7 mps 745 mmHg 72%
15:00 +24°C° 0.5 mm 6 mps 746 mmHg 75%
16:00 +23°C° 0.5 mm 6 mps 746 mmHg 77%
17:00 +23°C° 0.5 mm 6 mps 746 mmHg 80%
18:00 +22°C° 0.3 mm 5 mps 747 mmHg 83%
19:00 +21°C° 0.3 mm 5 mps 747 mmHg 87%
20:00 +19°C° 0.3 mm 4 mps 747 mmHg 90%
21:00 +19°C° 0 mm 4 mps 748 mmHg 91%
22:00 +18°C° 0 mm 4 mps 748 mmHg 92%
23:00 +18°C° 0 mm 4 mps 748 mmHg 93%

17 June, Thursday

Time Temperature Precipitation Wind Pressure Humidity
00:00 +17°C° 0 mm 4 mps 748 mmHg 93%
01:00 +17°C° 0 mm 4 mps 748 mmHg 93%
02:00 +17°C° 0 mm 4 mps 749 mmHg 94%
03:00 +17°C° 0 mm 4 mps 749 mmHg 93%
04:00 +17°C° 0 mm 4 mps 749 mmHg 92%
05:00 +17°C° 0 mm 4 mps 750 mmHg 91%
06:00 +18°C° 0 mm 4 mps 750 mmHg 86%
07:00 +20°C° 0 mm 5 mps 750 mmHg 81%
08:00 +21°C° 0 mm 5 mps 751 mmHg 76%
09:00 +23°C° 0 mm 6 mps 751 mmHg 72%
10:00 +24°C° 0 mm 6 mps 751 mmHg 68%
11:00 +26°C° 0 mm 6 mps 751 mmHg 64%
12:00 +26°C° 0 mm 6 mps 751 mmHg 64%
13:00 +26°C° 0 mm 6 mps 751 mmHg 64%
14:00 +26°C° 0 mm 6 mps 751 mmHg 63%
15:00 +26°C° 0 mm 6 mps 752 mmHg 65%
16:00 +24°C° 0 mm 6 mps 752 mmHg 67%
17:00 +25°C° 0 mm 5 mps 752 mmHg 70%
18:00 +22°C° 0 mm 5 mps 752 mmHg 75%
19:00 +20°C° 0 mm 4 mps 753 mmHg 81%
20:00 +19°C° 0 mm 4 mps 753 mmHg 86%
21:00 +18°C° 0 mm 4 mps 753 mmHg 88%
22:00 +17°C° 0 mm 4 mps 753 mmHg 90%
23:00 +17°C° 0 mm 4 mps 753 mmHg 92%
Show more